EW9366 Weather Reports


Display with metric or nautical units.
time (UTC)temp
F
wind
direction
speed
MPH
gust
MPH
rain 1hr
in
rain 24hr
in
rain mn
in
humidity
%
barometer
mb
20260510061213 62 259 0.0 0.0 0.00 0.01 0.00 79 1013.7
20260510060706 62 259 0.0 0.0 0.00 0.01 0.00 78 1013.6
20260510060207 62 259 0.0 1.0 0.00 0.01 0.00 79 1013.7
20260510055648 61 261 0.0 1.0 0.00 0.01 0.00 79 1013.5
20260510055147 61 261 0.0 0.0 0.00 0.01 0.00 79 1013.5
20260510054619 61 261 0.0 0.0 0.00 0.01 0.00 79 1013.4
20260510054118 61 261 0.0 0.0 0.00 0.01 0.00 79 1013.4
20260510053545 61 261 0.0 0.0 0.00 0.01 0.00 79 1013.4
20260510053046 61 261 0.0 0.0 0.00 0.01 0.00 77 1013.3
20260510052534 61 261 0.0 0.0 0.00 0.01 0.00 76 1013.2
20260510052036 61 261 0.0 0.0 0.00 0.01 0.00 76 1013.2
20260510051535 61 261 0.0 0.0 0.00 0.01 0.00 75 1013.2
20260510051524 61 261 0.0 0.0 0.00 0.01 0.00 74 1013.1
20260510050516 62 261 0.0 0.0 0.00 0.01 0.00 74 1013.1
20260510050014 62 261 0.0 0.0 0.00 0.01 0.00 74 1013.1
20260510045509 62 261 0.0 0.0 0.00 0.01 0.01 72 1013.0
20260510045010 63 261 0.0 0.0 0.00 0.01 0.01 72 1012.9
20260510044448 63 261 0.0 0.0 0.00 0.01 0.01 71 1012.8
20260510044440 63 261 0.0 0.0 0.00 0.01 0.01 69 1012.9
20260510043435 63 261 0.0 0.0 0.00 0.01 0.01 70 1012.8
20260510042935 63 261 0.0 0.0 0.00 0.01 0.01 70 1012.8
20260510042423 63 261 0.0 1.0 0.00 0.01 0.01 70 1012.8
20260510042410 62 261 0.0 1.0 0.00 0.01 0.01 69 1012.8
20260510041422 62 261 0.0 0.0 0.00 0.01 0.01 69 1012.8
20260510040918 62 261 0.0 0.0 0.00 0.01 0.01 70 1012.8
20260510040417 62 261 0.0 1.0 0.00 0.01 0.01 70 1012.8
20260510035849 61 261 0.0 1.0 0.00 0.01 0.01 71 1012.8
20260510035326 61 211 0.0 0.0 0.00 0.01 0.01 73 1012.8
20260510035251 61 211 0.0 0.0 0.00 0.01 0.01 73 1012.7
20260510034755 61 211 0.0 0.0 0.00 0.01 0.01 69 1012.6
20260510034258 62 211 0.0 0.0 0.00 0.01 0.01 69 1012.3
20260510033300 62 211 0.0 0.0 0.00 0.01 0.01 70 1012.2
20260510032800 62 211 0.0 0.0 0.00 0.01 0.01 69 1011.9
20260510032235 62 211 0.0 0.0 0.00 0.01 0.01 69 1011.8
20260510032159 62 211 0.0 0.0 0.00 0.01 0.01 69 1011.8
20260510031222 62 211 0.0 0.0 0.00 0.01 0.01 69 1011.6
20260510030718 62 211 0.0 0.0 0.00 0.01 0.01 69 1011.5
20260510030217 62 211 0.0 0.0 0.00 0.01 0.01 69 1011.4
20260510025649 62 211 0.0 0.0 0.00 0.01 0.01 68 1011.5
20260510025151 63 211 0.0 0.0 0.00 0.01 0.01 68 1011.4
20260510024636 63 211 0.0 0.0 0.00 0.01 0.01 67 1011.4
20260510024118 64 211 0.0 1.0 0.00 0.01 0.01 66 1011.4
20260510023617 64 211 0.0 1.0 0.00 0.01 0.01 65 1011.4
20260510023116 64 271 0.0 0.0 0.00 0.01 0.01 61 1011.1
20260510022606 65 271 0.0 0.0 0.00 0.01 0.01 60 1011.0
20260510022529 65 271 0.0 0.0 0.00 0.01 0.01 58 1010.9
20260510021519 66 271 0.0 0.0 0.00 0.01 0.01 58 1010.8
20260510021012 66 271 0.0 0.0 0.00 0.01 0.01 57 1010.7
20260510020442 67 271 0.0 0.0 0.00 0.01 0.01 57 1010.5
20260510015939 67 271 0.0 0.0 0.00 0.01 0.01 56 1010.5
20260510015433 68 271 0.0 0.0 0.00 0.01 0.01 54 1010.5
20260510014931 68 271 0.0 0.0 0.00 0.01 0.01 54 1010.3
20260510014430 69 271 0.0 0.0 0.00 0.01 0.01 54 1010.2
20260510013925 69 271 0.0 0.0 0.00 0.01 0.01 54 1010.1
20260510013427 69 271 0.0 0.0 0.00 0.01 0.01 53 1010.0
20260510012906 70 271 0.0 0.0 0.00 0.01 0.01 50 1010.1
20260510012404 71 271 0.0 0.0 0.00 0.01 0.01 49 1010.0
20260510011906 72 271 0.0 0.0 0.00 0.02 0.01 48 1009.8
20260510011351 73 271 0.0 0.0 0.00 0.03 0.01 47 1009.7
20260510011336 74 271 0.0 0.0 0.00 0.04 0.01 46 1009.8
20260510010831 76 271 0.0 0.0 0.00 0.04 0.01 45 1009.8
20260510005844 77 271 0.0 0.0 0.00 0.04 0.01 43 1009.7
20260510005328 78 271 0.0 0.0 0.00 0.05 0.01 42 1009.7
20260510005237 80 271 0.0 1.0 0.00 0.05 0.01 40 1009.7
20260510004236 82 271 0.0 0.0 0.00 0.06 0.01 41 1009.7
20260510003720 82 271 0.0 0.0 0.00 0.07 0.01 41 1009.6
20260510003157 83 271 0.0 1.0 0.00 0.07 0.01 42 1009.6
20260510002638 83 271 0.0 1.0 0.00 0.07 0.01 43 1009.6
20260510002139 83 271 0.0 1.0 0.00 0.07 0.01 41 1009.6
20260510001615 83 271 0.0 1.0 0.00 0.07 0.01 40 1009.6
20260510001111 83 259 0.0 3.0 0.00 0.07 0.01 40 1009.6
20260510000612 83 99 0.0 3.0 0.00 0.07 0.01 39 1009.7
20260510000108 84 198 0.0 0.0 0.00 0.07 0.01 41 1009.7
20260509235611 84 198 0.0 0.0 0.00 0.07 0.01 40 1009.7
20260509235051 84 197 0.0 0.0 0.00 0.07 0.01 41 1009.7
20260509234536 85 175 0.0 0.0 0.00 0.07 0.01 41 1009.8
20260509234036 85 175 0.0 0.0 0.00 0.07 0.01 40 1009.8
20260509233535 85 175 0.0 0.0 0.00 0.07 0.01 43 1009.8
20260509233030 85 175 0.0 0.0 0.00 0.07 0.01 43 1009.8
20260509232526 86 175 0.0 0.0 0.00 0.07 0.01 40 1009.9
20260509232011 86 198 0.0 0.0 0.00 0.07 0.01 41 1009.9
20260509231449 86 199 0.0 1.0 0.00 0.07 0.01 38 1009.9
20260509230931 86 210 0.0 2.0 0.00 0.07 0.01 40 1009.8
20260509230851 86 254 0.0 4.0 0.00 0.07 0.01 41 1009.8
20260509225846 85 157 0.0 4.0 0.00 0.07 0.01 41 1009.8
20260509225324 85 155 1.0 4.0 0.00 0.07 0.01 41 1009.7
20260509224759 86 82 0.0 4.0 0.00 0.07 0.01 36 1009.8
20260509224243 87 212 0.0 1.0 0.00 0.07 0.01 37 1009.8
20260509223740 86 212 0.0 2.0 0.00 0.07 0.01 38 1009.9
20260509223242 86 232 1.0 4.0 0.00 0.07 0.01 40 1009.9
20260509222739 86 269 1.0 4.0 0.00 0.07 0.01 44 1009.9
20260509222241 86 191 0.0 3.0 0.00 0.07 0.01 40 1009.8
20260509221715 86 191 0.0 3.0 0.00 0.07 0.01 41 1009.8
20260509221152 86 201 0.0 2.0 0.00 0.07 0.01 41 1009.9
20260509220623 85 198 0.0 3.0 0.00 0.07 0.01 39 1009.8
20260509220123 85 213 0.0 3.0 0.00 0.07 0.01 43 1009.8
20260509215603 85 245 1.0 3.0 0.00 0.07 0.01 41 1009.9
20260509215057 84 253 0.0 2.0 0.00 0.07 0.01 43 1009.8
20260509215038 84 32 0.0 2.0 0.00 0.07 0.01 38 1009.9
20260509214028 85 206 0.0 3.0 0.00 0.07 0.01 39 1009.9
20260509213510 85 126 0.0 3.0 0.00 0.07 0.01 38 1009.9
20260509213008 85 200 0.0 1.0 0.00 0.07 0.01 44 1009.9
20260509212441 85 199 0.0 1.0 0.00 0.07 0.01 44 1009.9
20260509211924 85 139 0.0 4.0 0.00 0.07 0.01 43 1009.9
20260509211422 85 275 0.0 4.0 0.00 0.07 0.01 42 1010.0
20260509210924 84 312 1.0 4.0 0.00 0.07 0.01 40 1010.2
20260509210415 84 75 1.0 4.0 0.00 0.07 0.01 38 1010.3
20260509205851 85 212 0.0 1.0 0.00 0.07 0.01 42 1010.3
20260509205333 84 200 1.0 4.0 0.00 0.07 0.01 47 1010.3
20260509204831 84 198 2.0 4.0 0.00 0.07 0.01 47 1010.4
20260509204327 83 257 2.0 5.0 0.00 0.07 0.01 41 1010.4
20260509203806 83 256 2.0 5.0 0.00 0.07 0.01 45 1010.5
20260509203240 83 255 2.0 7.0 0.00 0.07 0.01 39 1010.4
20260509203221 83 255 2.0 7.0 0.00 0.07 0.01 38 1010.4
20260509202228 84 255 1.0 5.0 0.00 0.07 0.01 39 1010.4
20260509201711 83 265 1.0 5.0 0.00 0.07 0.01 40 1010.4
20260509201150 83 161 1.0 5.0 0.00 0.07 0.01 38 1010.5
20260509200648 83 189 1.0 4.0 0.00 0.07 0.01 43 1010.6
20260509200121 82 189 2.0 6.0 0.00 0.07 0.01 42 1010.6
20260509195625 83 33 1.0 6.0 0.00 0.07 0.01 40 1010.5
20260509195054 83 19 1.0 4.0 0.00 0.07 0.01 39 1010.5
20260509194529 84 45 0.0 4.0 0.00 0.07 0.01 44 1010.5
20260509194002 84 179 1.0 5.0 0.00 0.07 0.01 46 1010.6
20260509193438 84 65 1.0 5.0 0.00 0.07 0.01 40 1010.6
20260509192913 85 37 0.0 3.0 0.00 0.07 0.01 45 1010.7
20260509192405 85 193 0.0 3.0 0.00 0.07 0.01 41 1010.7
20260509191905 85 114 0.0 2.0 0.00 0.07 0.01 43 1010.8
20260509191339 84 196 1.0 4.0 0.00 0.07 0.01 45 1010.9
20260509190834 83 211 2.0 4.0 0.00 0.07 0.01 46 1010.9
20260509190311 83 207 1.0 4.0 0.00 0.07 0.01 44 1010.9
20260509190225 83 248 1.0 3.0 0.00 0.07 0.01 44 1011.0
20260509185238 83 111 1.0 3.0 0.00 0.07 0.01 42 1011.1
20260509184713 83 90 1.0 4.0 0.00 0.07 0.01 43 1011.0
20260509184628 82 218 1.0 4.0 0.00 0.07 0.01 45 1011.1
20260509183630 82 252 1.0 4.0 0.00 0.07 0.01 42 1011.1
20260509183127 81 244 3.0 6.0 0.00 0.07 0.01 44 1011.2
20260509183113 82 247 2.0 6.0 0.00 0.07 0.01 44 1011.1
20260509182058 83 240 1.0 4.0 0.00 0.07 0.01 41 1011.1
20260509181532 82 214 1.0 4.0 0.00 0.07 0.01 50 1011.2
20260509181515 81 188 2.0 6.0 0.00 0.07 0.01 50 1011.2
20260509180526 82 258 1.0 6.0 0.00 0.07 0.01 45 1011.3
20260509180455 81 170 1.0 6.0 0.00 0.07 0.01 55 1011.4
20260509175454 81 236 2.0 6.0 0.00 0.07 0.01 48 1011.4
20260509175446 81 230 2.0 7.0 0.00 0.07 0.01 50 1011.4
20260509174425 82 258 1.0 7.0 0.00 0.07 0.01 48 1011.4
20260509174350 83 261 1.0 4.0 0.00 0.07 0.01 47 1011.5
20260509173407 83 196 1.0 4.0 0.00 0.07 0.01 51 1011.6
20260509172900 84 233 1.0 3.0 0.00 0.07 0.01 47 1011.8
20260509172355 84 188 0.0 3.0 0.00 0.07 0.01 51 1011.8
20260509171854 83 186 0.0 2.0 0.00 0.07 0.01 58 1011.8
20260509171337 83 245 1.0 3.0 0.00 0.07 0.01 57 1011.8
20260509170832 83 221 0.0 2.0 0.00 0.07 0.01 56 1011.9
20260509170317 82 75 0.0 2.0 0.00 0.07 0.01 55 1011.6
20260509165815 82 104 0.0 2.0 0.00 0.07 0.01 58 1011.6
20260509165757 81 134 1.0 3.0 0.00 0.07 0.01 58 1011.6
20260509164809 81 106 1.0 3.0 0.00 0.07 0.01 62 1011.6
20260509164242 82 11 1.0 3.0 0.00 0.07 0.01 58 1011.5
20260509164213 81 181 1.0 6.0 0.00 0.07 0.01 63 1011.5
20260509163206 82 244 1.0 6.0 0.00 0.07 0.01 57 1011.6
20260509162709 82 188 0.0 1.0 0.00 0.07 0.01 64 1011.8
20260509162635 81 195 1.0 5.0 0.00 0.07 0.01 68 1011.8
20260509161622 80 193 2.0 5.0 0.00 0.07 0.01 63 1011.8
20260509161124 81 248 0.0 4.0 0.00 0.07 0.01 62 1011.9
20260509160621 81 206 0.0 1.0 0.00 0.07 0.01 66 1012.0
20260509160119 80 157 0.0 1.0 0.00 0.07 0.01 68 1011.9
20260509155553 80 148 0.0 3.0 0.00 0.07 0.01 67 1011.9
20260509155024 81 71 0.0 3.0 0.00 0.07 0.01 61 1011.8
20260509154516 81 163 0.0 0.0 0.00 0.07 0.01 66 1011.8
20260509154017 80 183 0.0 2.0 0.00 0.07 0.01 65 1011.8
20260509153519 80 191 0.0 2.0 0.00 0.07 0.01 68 1011.8
20260509153001 79 152 0.0 2.0 0.00 0.07 0.01 68 1011.8
20260509152500 79 150 0.0 2.0 0.00 0.07 0.01 69 1011.9
20260509151956 78 200 1.0 3.0 0.00 0.07 0.01 70 1011.9
20260509151441 77 140 1.0 4.0 0.00 0.07 0.01 70 1011.9
20260509150911 78 243 1.0 4.0 0.00 0.07 0.01 67 1011.8
20260509150409 78 258 0.0 2.0 0.00 0.07 0.01 67 1011.8
20260509145842 77 208 0.0 1.0 0.00 0.07 0.01 71 1011.8
20260509145317 77 195 0.0 3.0 0.00 0.07 0.01 70 1011.6
20260509145241 77 231 0.0 3.0 0.00 0.07 0.01 68 1011.8
20260509144257 76 205 0.0 3.0 0.00 0.07 0.01 69 1011.6
20260509143759 76 190 1.0 3.0 0.00 0.07 0.01 71 1011.8
20260509143231 76 259 0.0 3.0 0.00 0.07 0.01 66 1011.6
20260509143147 76 195 0.0 1.0 0.00 0.07 0.01 70 1011.6
20260509142138 76 179 0.0 1.0 0.00 0.07 0.01 70 1011.6
20260509142116 76 146 0.0 0.0 0.00 0.07 0.01 69 1011.5
20260509141106 76 196 0.0 0.0 0.00 0.07 0.01 71 1011.5
20260509141022 75 202 0.0 0.0 0.00 0.07 0.01 72 1011.5
20260509140037 74 191 0.0 0.0 0.00 0.07 0.01 74 1011.5
20260509135533 73 191 0.0 0.0 0.00 0.07 0.01 75 1011.4
20260509135031 72 181 0.0 0.0 0.00 0.07 0.01 76 1011.4
20260509134504 72 186 0.0 0.0 0.00 0.07 0.01 76 1011.3
20260509134431 71 176 0.0 0.0 0.00 0.07 0.01 79 1011.2
20260509133415 70 204 0.0 0.0 0.00 0.07 0.01 81 1011.0
20260509132912 69 206 0.0 0.0 0.00 0.07 0.01 81 1011.0
20260509132345 68 173 0.0 0.0 0.00 0.07 0.01 86 1011.0
20260509131843 67 173 0.0 0.0 0.00 0.07 0.01 88 1010.8
20260509131317 67 185 0.0 0.0 0.00 0.07 0.01 90 1010.9
20260509130749 66 184 0.0 0.0 0.00 0.07 0.01 92 1010.9
20260509130247 65 184 0.0 0.0 0.00 0.07 0.01 92 1010.9
20260509125719 64 184 0.0 0.0 0.00 0.07 0.01 94 1010.8
20260509125151 64 199 0.0 0.0 0.00 0.07 0.01 96 1010.8
20260509125143 63 199 0.0 0.0 0.00 0.07 0.01 96 1010.8
20260509124139 63 199 0.0 0.0 0.00 0.07 0.01 95 1010.9
20260509123612 62 199 0.0 0.0 0.00 0.07 0.01 95 1010.8
20260509123053 61 199 0.0 0.0 0.00 0.07 0.01 96 1010.8
20260509122555 60 199 0.0 0.0 0.00 0.07 0.01 97 1010.7
20260509122050 59 199 0.0 0.0 0.00 0.07 0.01 97 1010.6
20260509121553 58 199 0.0 0.0 0.00 0.07 0.01 97 1010.5
20260509121034 56 200 0.0 0.0 0.00 0.07 0.01 97 1010.4
20260509120531 55 199 0.0 0.0 0.00 0.07 0.01 97 1010.3
20260509120451 53 200 0.0 0.0 0.00 0.07 0.01 97 1010.4
20260509115439 52 200 0.0 0.0 0.00 0.07 0.01 96 1010.3
20260509114914 51 200 0.0 0.0 0.00 0.07 0.01 96 1010.3
20260509114414 50 200 0.0 0.0 0.00 0.07 0.01 96 1010.3
20260509113912 49 200 0.0 0.0 0.00 0.07 0.01 96 1010.3
20260509113904 49 200 0.0 0.0 0.00 0.07 0.01 96 1010.3
20260509112843 49 200 0.0 0.0 0.00 0.07 0.01 95 1010.2
20260509112318 49 200 0.0 0.0 0.00 0.07 0.01 95 1010.2
20260509111821 49 200 0.0 0.0 0.00 0.07 0.01 95 1010.1
20260509111243 49 200 0.0 0.0 0.00 0.07 0.01 95 1010.0
20260509110719 49 200 0.0 0.0 0.00 0.07 0.01 95 1010.2
20260509110155 49 200 0.0 0.0 0.00 0.07 0.01 96 1010.1
20260509105633 49 200 0.0 0.0 0.00 0.07 0.01 96 1010.1
20260509105619 49 200 0.0 0.0 0.00 0.07 0.01 95 1009.9
20260509104602 49 200 0.0 0.0 0.00 0.07 0.01 95 1009.8
20260509104037 49 200 0.0 0.0 0.00 0.07 0.01 95 1009.9
20260509103507 49 200 0.0 0.0 0.00 0.07 0.01 95 1009.8
20260509103433 49 200 0.0 0.0 0.00 0.07 0.01 94 1009.8
20260509102437 50 200 0.0 0.0 0.00 0.07 0.01 94 1009.9
20260509102416 50 200 0.0 0.0 0.00 0.07 0.01 95 1009.9
20260509101843 50 200 0.0 0.0 0.00 0.07 0.01 94 1009.8
20260509100905 50 200 0.0 0.0 0.00 0.07 0.01 95 1009.8
20260509100825 50 200 0.0 0.0 0.00 0.07 0.01 95 1009.7
20260509095813 50 200 0.0 0.0 0.01 0.07 0.01 94 1009.7
20260509095248 50 200 0.0 0.0 0.01 0.07 0.01 94 1009.8
20260509094747 50 200 0.0 0.0 0.01 0.07 0.01 94 1009.9
20260509094238 50 200 0.0 0.0 0.01 0.07 0.01 94 1009.9
20260509093735 50 200 0.0 0.0 0.01 0.07 0.01 94 1009.9
20260509093232 51 200 0.0 0.0 0.01 0.07 0.01 94 1009.9
20260509092726 51 200 0.0 0.0 0.01 0.07 0.01 94 1010.0
20260509092222 51 200 0.0 0.0 0.01 0.07 0.01 94 1010.0
20260509092140 51 200 0.0 0.0 0.01 0.07 0.01 94 1010.0
20260509091152 51 200 0.0 0.0 0.01 0.07 0.01 94 1010.1
20260509090650 51 200 0.0 0.0 0.01 0.07 0.01 94 1010.2
20260509090151 51 200 0.0 0.0 0.01 0.07 0.01 94 1010.2
20260509085626 51 200 0.0 0.0 0.00 0.06 0.00 94 1010.2
20260509085119 51 200 0.0 0.0 0.00 0.06 0.00 94 1010.2
20260509084615 51 200 0.0 0.0 0.00 0.06 0.00 94 1010.2
20260509084551 51 200 0.0 0.0 0.00 0.06 0.00 94 1010.2
20260509083604 52 200 0.0 0.0 0.00 0.06 0.00 94 1010.2
20260509083101 52 200 0.0 0.0 0.00 0.06 0.00 94 1010.2
20260509082534 52 200 0.0 0.0 0.00 0.06 0.00 94 1010.2
20260509082007 52 200 0.0 0.0 0.00 0.06 0.00 94 1010.3
20260509081928 52 200 0.0 0.0 0.00 0.06 0.00 94 1010.4
20260509080911 52 200 0.0 0.0 0.00 0.06 0.00 94 1010.4
20260509080829 52 200 0.0 0.0 0.00 0.06 0.00 93 1010.5
20260509075828 52 200 0.0 0.0 0.00 0.06 0.00 94 1010.5
20260509075331 52 200 0.0 0.0 0.00 0.06 0.00 93 1010.4
20260509074817 53 200 0.0 0.0 0.00 0.06 0.00 93 1010.4
20260509074318 53 200 0.0 0.0 0.00 0.06 0.00 93 1010.4
20260509074241 53 200 0.0 0.0 0.00 0.06 0.00 93 1010.4
20260509073249 53 200 0.0 0.0 0.00 0.06 0.00 93 1010.4
20260509072738 53 200 0.0 0.0 0.00 0.06 0.00 93 1010.4
20260509072719 53 200 0.0 0.0 0.00 0.06 0.00 93 1010.3
20260509071714 53 200 0.0 0.0 0.00 0.06 0.00 93 1010.3
20260509071215 53 200 0.0 0.0 0.00 0.06 0.00 93 1010.3
20260509070712 53 200 0.0 0.0 0.00 0.06 0.00 93 1010.3
20260509070659 53 200 0.0 0.0 0.00 0.06 0.00 93 1010.4
20260509065654 53 200 0.0 0.0 0.00 0.06 0.00 92 1010.4
20260509065632 54 200 0.0 0.0 0.00 0.06 0.00 92 1010.4
20260509065126 54 200 0.0 0.0 0.00 0.06 0.00 92 1010.4
20260509064148 54 200 0.0 0.0 0.00 0.06 0.00 92 1010.5
20260509064125 54 200 0.0 0.0 0.00 0.06 0.00 92 1010.4
20260509063145 55 200 0.0 0.0 0.00 0.06 0.00 91 1010.5
20260509062644 55 200 0.0 0.0 0.00 0.06 0.00 92 1010.6
20260509062140 55 200 0.0 0.0 0.00 0.06 0.00 92 1010.6